Theta_e
311 314 313 317 324 327 332 332 328 330 330 328 327 330 338 342 351 354 355 355 351 356 357 349 344 334 335 340 343 344 345 345 345 345 344 341 337 328 327 336 342 345 346 341 331 329 331 329 326
314 312 313 319 326 331 332 329 330 331 328 328 329 329 342 352 356 357 355 354 353 356 357 354 342 332 333 335 335 336 339 342 344 345 344 341 333 326 337 340 342 343 342 338 332 329 328 327 327
312 314 315 318 322 331 332 328 329 329 327 328 328 326 340 354 356 356 355 354 355 356 356 353 339 332 332 331 331 332 332 334 338 341 341 336 329 336 339 340 338 337 343 335 337 335 333 332 331
312 316 316 317 323 325 330 329 327 327 325 325 325 329 327 357 357 356 355 354 355 355 355 346 337 332 331 330 331 331 330 330 332 335 335 331 333 338 338 336 335 341 340 344 341 338 335 335 339
310 313 314 316 317 319 321 326 325 327 325 325 323 327 325 359 356 356 355 354 353 354 354 349 337 332 331 331 332 331 330 329 330 332 331 331 335 337 336 336 332 333 334 338 336 335 336 337 336
312 312 313 313 315 316 318 320 322 324 323 322 323 323 329 358 357 356 355 354 353 354 354 352 339 333 331 331 332 332 330 329 330 330 330 331 334 336 336 337 333 329 330 332 333 334 334 335 337
311 312 312 312 312 313 314 318 320 321 322 322 321 323 327 353 357 356 355 354 353 354 353 352 347 335 331 331 332 333 332 330 329 330 329 329 332 333 333 336 335 332 328 329 330 332 335 336 336
312 313 312 311 311 312 313 315 317 319 320 319 319 323 328 354 356 355 355 355 354 354 353 353 351 346 343 333 331 333 333 332 330 329 327 327 328 331 335 337 338 337 332 326 326 328 329 330 332
310 312 311 311 311 311 314 315 315 316 317 317 318 329 345 354 354 356 356 355 354 354 354 353 352 349 346 345 338 332 333 334 332 331 330 330 341 339 335 339 337 339 338 328 324 327 329 331 331
313 314 313 312 312 312 312 313 315 316 317 317 318 319 345 353 356 356 355 354 353 353 354 353 353 350 347 346 346 344 344 342 341 341 337 342 343 344 343 338 336 336 337 331 330 327 326 327 330
312 314 313 311 312 313 313 313 314 315 315 317 317 318 339 352 355 356 355 353 352 352 353 353 353 350 348 346 348 347 346 346 346 346 345 344 343 343 343 343 341 342 337 340 337 335 337 333 334
311 312 312 312 312 314 313 313 314 314 315 316 316 316 335 346 356 357 355 352 352 352 352 352 352 350 351 350 348 347 347 347 345 345 345 344 343 344 344 342 343 344 343 343 341 338 338 333 332
311 312 311 312 312 313 313 313 314 314 315 315 315 316 318 340 353 355 355 353 352 352 353 353 352 351 351 352 350 350 348 347 346 345 345 345 344 345 344 344 343 342 342 342 341 339 340 341 342
313 311 311 311 312 312 312 312 313 314 315 315 315 316 317 334 352 351 354 355 353 352 352 352 352 352 354 352 350 350 349 348 348 346 346 346 345 345 344 344 342 342 342 341 341 341 343 344 344
313 311 310 311 311 311 311 311 312 313 313 314 316 316 317 325 350 351 351 356 354 352 351 351 350 353 355 351 351 350 350 349 348 348 348 346 345 344 342 343 342 342 342 339 343 344 343 342 339
314 313 315 314 310 310 310 314 312 313 313 314 314 315 317 317 347 349 349 353 355 355 352 351 352 353 354 351 350 349 348 349 349 349 348 348 344 343 343 343 342 342 343 342 342 341 341 341 339
313 316 316 315 312 312 310 312 313 313 313 314 316 317 317 318 318 335 346 349 353 354 354 352 352 352 354 351 348 347 346 348 349 349 349 348 346 344 345 344 340 340 342 342 340 340 338 340 341
318 314 312 314 313 313 313 311 313 312 312 314 316 317 317 318 319 317 334 345 349 352 353 354 352 352 351 347 347 345 345 346 346 347 344 342 343 345 344 343 341 340 341 340 339 340 339 337 339
317 315 315 313 313 313 314 314 312 313 313 313 315 316 317 317 318 317 320 342 345 347 349 351 350 349 345 346 344 345 345 344 343 342 342 342 343 344 342 341 341 341 340 340 339 339 337 337 338
317 315 315 314 313 312 314 314 314 313 314 315 316 317 317 317 317 317 321 338 344 345 346 347 348 346 345 346 344 344 343 342 341 342 343 343 343 342 342 341 341 340 339 340 338 337 338 338 337
319 318 314 314 314 313 314 315 316 315 315 315 316 317 318 318 319 318 324 334 341 345 345 346 346 344 343 342 340 340 340 341 341 342 341 340 341 342 341 341 338 338 337 338 337 338 339 337 337
321 318 315 314 314 315 315 317 317 317 317 316 317 317 318 318 318 319 325 334 340 342 345 346 345 342 340 339 340 340 342 342 342 340 340 340 340 339 340 340 338 339 337 338 339 338 337 337 338
319 318 317 315 315 316 316 315 316 316 317 317 319 319 319 319 318 317 325 332 337 342 345 346 343 339 338 339 340 339 339 339 338 339 340 338 337 337 337 337 336 334 334 334 336 336 337 337 337
317 317 318 317 316 317 316 316 317 316 317 317 319 320 320 319 317 318 323 331 337 343 342 339 337 336 338 340 340 340 340 340 340 340 339 339 336 336 336 334 334 333 336 335 336 335 333 332 332
316 317 317 318 317 318 317 317 317 317 321 324 326 323 318 318 316 321 331 335 339 337 336 336 336 335 338 339 339 340 340 340 341 341 340 337 336 334 334 335 335 333 330 329 329 327 325 324 324
317 315 317 318 318 318 315 317 317 324 335 334 329 329 330 327 329 333 336 337 336 335 335 336 333 331 333 333 331 331 334 336 335 334 336 334 333 330 328 327 327 325 323 322 320 321 321 319 320
316 316 316 318 317 317 316 318 333 333 335 334 334 336 337 336 334 335 334 330 329 329 332 330 327 326 326 325 324 323 323 324 324 324 324 324 323 322 321 320 319 318 317 316 316 319 318 318 319
316 316 317 317 318 318 318 319 324 335 335 332 332 332 332 329 329 327 325 323 324 325 325 324 324 321 320 319 318 318 317 318 317 317 318 319 317 318 318 318 318 318 318 318 317 318 317 317 316
319 318 317 317 319 320 322 320 331 334 333 332 331 330 327 325 323 322 321 321 321 322 322 321 320 319 318 316 316 315 314 315 315 314 314 316 315 315 316 316 316 316 316 316 316 316 315 315 315
319 319 319 319 321 321 321 335 330 331 330 331 328 325 323 321 320 319 319 319 321 321 320 318 317 317 315 314 315 313 313 311 310 310 309 310 310 310 310 311 311 312 312 312 312 312 313 313 313
Wind_Speed
5 3 1 0 4 3 7 6 2 3 4 1 6 5 6 3 3 3 3 15 22 29 28 29 31 30 30 30 30 29 28 27 27 26 24 22 22 23 23 21 18 16 14 12 12 12 11 11 11
0 1 2 2 6 10 11 6 8 9 1 10 7 4 3 1 1 5 11 10 24 29 28 27 31 31 30 30 29 28 26 26 25 24 23 21 22 23 21 19 16 14 13 12 12 13 13 13 12
3 2 3 4 6 17 14 7 8 6 3 4 4 2 4 3 2 3 5 19 26 28 28 30 32 31 30 28 27 27 26 25 24 23 22 22 22 22 19 16 14 12 12 13 12 12 13 13 14
3 2 2 7 17 18 20 4 3 3 1 2 5 7 5 1 0 2 18 24 28 27 27 33 34 32 31 30 28 26 24 23 24 23 23 23 23 22 19 16 14 13 13 12 11 11 12 13 13
4 1 4 7 17 10 6 12 6 7 2 2 7 8 6 2 5 12 21 25 31 29 27 31 32 30 31 31 29 27 25 24 24 24 24 24 22 20 19 16 14 14 14 13 12 11 11 11 10
3 0 5 15 20 15 13 9 8 11 6 3 4 6 4 7 8 13 19 23 27 31 29 28 33 31 30 29 28 27 26 24 23 23 23 23 21 19 17 15 14 14 14 13 12 12 11 10 8
6 4 9 9 11 15 11 8 13 15 15 12 4 5 3 4 8 14 17 19 25 27 28 28 29 32 31 30 28 26 26 25 24 23 22 21 20 18 17 15 13 12 12 12 12 11 10 9 7
4 4 7 9 14 14 3 8 6 11 12 5 4 6 2 3 10 15 17 17 22 24 25 25 25 26 26 29 29 27 26 24 23 22 23 23 21 19 17 15 14 13 11 11 11 11 10 8 7
4 7 14 15 15 9 1 4 7 2 7 3 3 3 4 8 15 16 17 18 20 21 22 22 23 23 23 22 25 27 25 24 23 22 22 22 19 20 19 18 16 14 12 10 9 9 9 8 7
10 11 16 7 15 8 8 13 6 5 6 5 5 4 6 11 17 19 20 20 22 22 21 20 20 21 22 21 22 22 22 22 22 21 23 19 18 18 18 19 18 15 13 11 10 9 10 7 6
10 18 14 11 15 12 14 16 9 9 14 12 9 7 2 8 14 16 18 22 24 21 20 19 20 21 21 21 21 20 20 20 20 20 20 18 17 16 15 14 15 13 14 11 11 10 9 9 8
12 16 15 12 10 11 15 12 13 13 17 6 6 6 5 6 12 15 17 21 25 24 24 24 23 23 24 21 22 21 20 20 19 20 21 18 17 16 16 14 14 13 13 12 11 10 10 10 10
21 13 16 21 14 18 17 16 12 8 9 10 9 15 13 10 12 18 20 20 23 26 25 25 24 26 26 22 20 19 19 19 20 20 21 18 16 16 14 13 12 12 13 13 12 11 10 11 11
6 20 17 12 20 20 22 21 16 9 12 12 10 13 10 13 14 16 19 21 24 23 25 25 26 26 26 23 23 19 19 19 19 19 19 19 16 15 14 12 12 11 11 11 11 11 9 9 8
13 8 11 20 20 15 7 21 22 19 17 18 16 15 13 11 17 19 24 24 25 25 25 28 27 27 27 24 22 18 17 18 19 19 19 20 19 18 16 13 12 12 11 12 10 9 9 8 8
15 15 17 13 11 11 11 21 6 17 19 20 19 16 13 10 18 21 20 22 26 24 26 25 28 29 28 25 21 21 17 17 17 17 16 17 18 18 18 16 14 14 15 12 11 10 10 9 7
13 14 20 12 14 10 19 13 16 19 13 14 13 14 13 13 12 17 20 21 22 25 24 26 27 26 27 24 22 20 17 16 15 14 14 15 17 19 19 16 16 17 15 15 15 12 9 10 13
15 18 9 16 14 23 22 19 9 2 17 19 17 14 12 13 15 18 20 21 21 22 22 21 21 21 22 19 18 15 13 11 10 12 14 15 18 21 21 16 16 17 16 16 15 15 14 17 14
15 16 19 13 8 16 23 21 19 16 10 12 13 13 12 13 15 12 14 16 17 18 19 21 21 21 21 18 16 12 12 10 11 12 13 15 16 18 19 18 18 22 22 19 18 17 16 11 9
18 9 12 12 18 13 14 23 20 21 17 16 16 15 14 12 12 10 14 17 19 21 21 20 22 20 19 17 13 8 10 8 11 15 16 17 17 20 22 20 21 22 20 19 18 14 7 6 5
23 22 9 5 12 13 6 15 12 15 16 14 14 13 15 15 15 12 13 21 22 22 24 24 20 16 17 16 17 14 13 8 9 14 16 17 17 18 18 19 17 15 16 16 13 13 10 7 5
26 23 16 9 9 10 10 4 11 17 14 15 15 14 15 15 15 14 15 17 22 27 21 18 16 15 15 18 17 16 11 10 8 13 13 13 13 13 15 16 15 15 14 10 11 8 9 9 9
22 19 21 14 8 5 10 6 8 5 14 17 15 16 17 17 17 16 17 23 27 17 17 15 12 11 14 16 16 14 10 7 7 9 11 12 13 11 10 11 11 10 10 8 9 8 9 9 8
11 20 20 16 11 12 19 12 6 10 14 12 11 8 13 14 14 12 14 15 15 12 14 13 12 11 12 14 14 11 10 7 6 6 6 8 9 8 7 8 8 8 6 5 6 8 6 4 3
20 21 9 11 10 8 13 12 10 7 2 5 5 3 2 9 11 11 12 12 15 14 14 14 13 10 8 8 9 9 7 4 3 5 5 7 7 6 5 7 7 6 7 6 6 3 1 3 5
28 23 12 18 16 15 6 11 4 5 3 1 4 5 9 13 13 14 14 13 16 17 19 20 19 18 14 12 10 8 3 1 1 1 2 4 6 6 6 6 7 6 5 3 1 1 2 6 7
28 23 13 10 10 10 8 4 4 5 5 6 8 10 12 15 15 16 16 18 21 21 23 26 26 24 21 20 20 20 17 15 12 10 9 10 9 8 8 6 5 2 0 2 4 3 6 8 10
28 26 12 7 12 11 12 8 5 9 8 8 10 12 13 15 16 16 15 19 23 27 28 30 31 30 27 28 29 24 24 20 16 13 12 9 8 6 4 4 3 2 3 3 4 5 6 9 12
18 21 18 3 2 6 9 8 2 8 9 11 12 12 13 14 14 15 15 23 27 30 30 29 28 28 27 30 28 22 18 17 11 9 7 7 5 5 4 5 4 3 4 5 7 9 11 13 15
16 23 21 12 8 2 2 4 3 9 10 12 13 14 15 16 16 16 15 21 27 27 25 24 19 20 21 26 26 21 16 8 6 8 7 6 6 6 6 7 6 6 7 8 10 12 14 16 18
Wind_Direction
275 300 345 18 227 251 242 223 281 193 196 28 288 261 282 293 268 356 325 163 153 153 157 163 165 162 160 157 154 153 156 158 159 160 158 156 153 153 153 153 154 155 152 148 144 144 145 143 139
159 108 109 119 226 226 236 222 211 230 119 313 309 302 235 20 32 104 121 151 155 153 154 157 166 164 163 159 155 154 155 158 161 162 160 158 156 155 154 154 155 156 155 149 144 144 142 140 136
120 96 194 195 220 230 241 218 239 270 278 294 325 313 324 318 29 148 150 151 154 154 156 161 166 165 164 159 156 155 156 158 160 164 163 161 158 156 153 153 153 153 153 147 144 142 140 139 137
135 145 111 225 222 241 236 196 214 166 106 152 358 303 307 80 65 152 153 152 154 157 159 165 169 168 166 162 159 156 155 157 161 164 165 163 161 158 156 154 151 149 148 145 144 144 144 143 142
58 140 208 226 233 247 229 230 204 256 236 246 337 309 284 103 104 140 156 159 159 158 160 164 171 170 169 165 162 158 157 157 160 163 165 165 165 162 160 158 153 153 153 154 153 152 152 153 156
137 237 213 230 238 226 246 238 243 247 261 249 276 279 280 143 136 149 161 164 164 160 161 165 172 173 172 170 166 162 160 159 162 164 167 167 167 166 164 160 157 159 160 161 161 163 166 171 177
197 192 230 246 252 254 228 214 227 244 255 259 230 241 265 170 152 154 161 165 166 164 163 166 170 176 176 174 173 168 166 164 163 167 168 169 171 172 169 164 162 162 165 168 171 177 180 183 196
172 209 221 227 240 256 218 222 238 228 258 168 213 222 237 54 155 149 151 161 167 168 169 170 169 172 174 177 177 175 172 168 169 170 170 170 172 174 172 171 172 172 175 178 184 188 193 200 210
163 221 228 226 222 227 216 198 224 219 237 220 224 270 21 155 152 149 152 159 169 174 176 173 172 173 173 176 179 179 178 175 174 174 175 173 171 174 179 183 186 186 186 187 192 194 201 213 224
201 225 225 222 226 226 241 246 216 228 195 214 233 279 32 172 175 170 170 171 173 176 180 180 178 177 176 176 177 179 180 179 178 178 178 177 180 183 184 190 195 196 196 194 196 203 210 217 225
205 230 229 225 231 236 246 247 228 245 248 247 248 289 30 180 198 193 190 176 176 176 179 183 180 182 181 182 180 184 185 187 186 185 183 186 184 190 192 195 198 198 201 195 199 203 210 217 220
232 229 229 227 220 234 239 248 237 236 245 266 238 304 305 224 199 196 188 183 178 181 186 187 186 188 186 189 189 191 191 190 190 192 193 188 188 192 196 200 204 200 203 202 201 212 214 226 234
228 231 217 234 229 235 252 243 256 232 247 248 258 285 276 243 206 193 191 189 183 185 188 190 190 193 192 193 195 194 195 197 197 196 197 195 196 198 200 204 207 211 211 207 211 215 223 233 239
211 223 234 229 236 243 251 254 236 232 233 247 260 268 266 236 202 190 188 190 192 190 190 190 196 198 197 199 199 199 198 202 202 200 199 199 200 204 202 206 212 221 220 222 215 217 220 231 231
223 221 227 235 230 242 253 258 244 238 240 254 259 270 268 233 202 201 195 194 191 197 194 198 197 202 202 201 207 204 207 205 205 205 202 200 203 206 206 208 213 216 216 211 215 204 194 198 209
211 233 234 209 204 231 216 249 2 195 204 223 234 244 251 220 216 214 212 204 196 192 196 196 201 204 205 202 203 207 209 208 207 208 203 204 209 213 213 213 217 213 210 197 201 209 203 211 233
207 226 223 235 215 207 204 256 247 235 201 221 225 233 232 232 224 220 216 208 199 196 194 199 203 203 202 203 206 209 210 209 209 205 207 209 218 219 218 211 216 213 203 199 201 211 222 258 268
205 223 209 207 196 213 220 229 253 195 219 219 223 233 235 234 228 222 216 209 202 200 201 200 198 199 198 195 200 203 204 205 204 207 217 217 217 215 215 213 209 206 206 205 215 230 254 271 267
220 209 224 206 204 207 231 235 233 238 223 233 234 233 227 226 238 237 222 214 204 205 203 199 195 193 188 184 177 187 193 176 189 207 218 223 219 211 210 211 209 213 215 219 226 253 248 268 280
224 192 217 223 220 218 233 240 230 245 236 235 228 231 228 217 215 217 212 203 207 205 206 203 204 199 192 186 175 169 166 184 206 216 221 224 219 213 211 213 214 214 221 240 241 246 254 245 261
223 217 204 194 192 214 235 243 225 239 221 221 218 224 228 219 218 208 207 204 206 206 205 204 199 195 187 175 166 164 173 187 198 217 223 224 221 218 213 205 210 220 233 248 245 222 223 250 252
215 212 208 200 211 202 205 247 217 226 215 209 207 211 224 217 222 213 206 206 203 211 204 200 193 186 181 177 183 189 190 198 209 238 227 217 215 222 222 222 229 239 242 234 230 233 238 238 247
221 185 199 219 229 235 197 240 243 220 230 216 210 210 215 220 209 205 196 204 208 203 196 189 182 175 171 173 191 187 187 204 223 238 233 216 222 216 211 215 222 223 223 231 230 220 220 221 235
193 179 190 201 218 233 228 223 218 208 228 217 209 235 235 222 206 206 201 195 188 182 176 165 165 171 169 181 184 184 195 205 242 240 227 207 201 201 206 204 203 214 233 216 203 199 194 204 231
204 168 161 188 196 214 216 210 220 202 241 289 297 295 162 168 166 168 168 169 161 158 147 136 138 134 139 138 144 168 176 205 246 247 229 188 181 183 193 197 196 183 188 183 172 177 233 281 284
193 181 175 173 186 192 156 212 208 229 355 343 61 85 111 121 131 139 142 143 144 135 124 117 106 97 98 104 94 86 66 90 233 149 158 122 130 135 142 143 146 150 157 170 213 342 301 297 292
191 198 189 148 177 170 172 149 151 144 122 90 86 98 93 97 104 109 107 105 109 108 112 112 105 96 91 88 84 76 67 61 67 75 94 95 92 104 120 127 124 125 60 309 307 314 304 298 298
183 190 194 194 168 176 185 188 137 162 142 114 101 105 90 87 87 85 86 90 96 102 106 105 104 102 99 91 83 78 78 73 62 68 64 75 89 84 66 67 55 24 353 332 314 300 300 297 289
184 190 211 150 232 176 155 188 63 153 140 127 112 85 79 82 86 90 92 95 100 104 104 104 103 106 101 93 88 81 78 76 78 68 62 47 52 47 27 20 12 11 350 333 320 316 308 296 295
178 199 190 192 159 97 193 109 340 140 131 117 96 90 93 93 94 91 90 97 103 104 100 95 98 103 103 98 91 76 65 65 70 59 37 32 29 16 0 352 348 337 329 321 316 304 291 288 287